Wind_Speed
42 42 42 42 43 43 43 44 44 44 44 45 46 47 47 47 48 48 48 48 48 48 48 48 49 49 50 51 51 51 52 52 53 52 52 53 53 53 52 52 51 51 51
42 42 43 43 43 44 44 44 45 46 46 46 47 48 48 49 49 50 50 49 49 49 49 49 49 49 50 51 51 52 52 52 52 52 52 52 52 52 52 51 51 50 50
43 43 43 43 43 44 45 45 46 47 47 48 48 48 49 50 50 50 50 50 50 50 50 50 50 51 51 52 52 52 52 52 52 52 51 52 51 51 51 51 50 50 49
44 45 45 45 46 46 47 47 47 47 48 48 49 49 49 50 51 50 50 50 50 51 51 52 51 52 52 52 52 53 53 53 52 52 52 52 51 51 51 50 50 50 50
45 46 47 47 47 48 48 48 48 48 49 50 50 50 50 51 51 51 51 51 52 52 52 52 52 52 52 52 53 53 53 53 53 53 52 51 50 49 50 50 51 51 50
45 46 47 48 48 48 48 48 49 50 50 50 51 50 50 50 50 51 51 51 53 53 52 53 53 53 53 53 53 53 53 53 53 53 51 50 49 49 49 50 51 51 51
45 46 47 48 49 49 49 49 49 49 49 49 49 49 49 49 50 51 51 51 52 52 52 52 52 53 53 53 53 53 53 53 53 53 52 51 50 49 49 50 50 51 51
46 47 47 48 48 48 49 48 48 48 48 48 48 48 49 49 49 49 50 51 51 52 52 52 52 52 52 53 53 53 52 52 52 52 52 51 51 51 51 51 51 51 51
45 45 46 46 47 47 47 48 47 47 47 47 47 47 48 48 48 48 49 50 51 52 52 53 53 53 53 53 52 52 52 52 51 51 51 50 50 51 51 52 51 51 50
44 44 44 44 44 45 46 46 46 46 46 46 46 47 47 48 49 49 49 50 51 51 52 52 53 53 53 52 52 52 51 50 50 50 50 49 49 50 50 50 50 50 49
43 43 43 43 43 44 45 45 46 46 47 46 47 47 48 48 49 49 49 50 50 51 51 52 52 53 53 52 52 51 51 50 50 50 50 50 49 49 49 49 49 49 48
42 42 43 43 43 43 44 44 45 46 46 47 48 48 48 49 49 49 49 49 50 51 51 51 51 52 51 52 52 51 51 50 49 49 49 49 49 48 48 48 48 48 48
41 42 42 42 43 43 43 43 44 45 46 47 48 48 48 48 48 49 49 49 50 51 50 50 50 50 50 50 50 51 51 51 50 49 49 48 48 48 48 47 47 47 47
41 41 42 42 43 43 43 43 44 45 45 46 47 47 47 47 47 48 49 49 50 50 50 49 49 48 48 48 49 50 50 50 50 49 49 48 48 47 47 47 47 46 46
41 40 41 42 42 43 43 43 43 44 45 45 45 46 46 46 46 47 48 48 48 48 48 47 47 47 46 46 47 48 48 48 48 48 48 47 47 47 46 46 46 46 45
40 40 40 40 41 41 41 42 43 43 42 43 43 44 44 45 45 46 46 46 46 46 46 46 45 45 45 45 45 45 45 46 46 46 46 46 46 46 46 46 46 45 45
39 39 39 39 39 40 40 41 41 41 41 41 41 41 42 43 43 44 44 44 43 44 44 44 43 43 43 43 43 43 43 44 44 44 44 44 44 45 45 45 45 45 45
38 38 38 37 37 38 38 38 39 39 39 40 41 41 41 41 42 42 42 42 42 42 42 42 41 41 41 41 41 41 41 42 42 42 42 42 43 44 44 44 44 44 44
37 37 37 36 36 37 37 37 37 37 37 38 38 39 40 40 40 40 41 41 40 40 40 40 40 40 40 40 40 40 40 40 40 40 41 41 42 42 42 42 42 42 42
37 37 37 37 36 36 37 36 36 36 36 36 37 38 38 38 38 39 39 39 39 39 39 39 39 39 39 39 38 38 38 38 39 39 39 40 40 40 40 40 41 40 40
37 36 36 36 36 36 36 36 36 36 36 36 36 37 37 36 37 37 38 38 38 38 37 37 37 38 38 38 37 37 38 38 38 38 38 38 39 39 39 39 39 39 39
37 37 37 37 37 36 36 36 36 37 36 36 36 36 37 37 37 37 37 36 36 36 36 36 36 36 36 37 37 38 38 38 38 38 37 37 37 37 37 37 37 38 38
36 36 36 36 37 37 37 37 37 37 37 37 36 37 37 37 36 36 36 35 35 35 36 35 35 36 36 36 36 37 37 37 37 37 36 36 36 35 36 36 36 36 37
36 36 36 36 36 36 37 37 37 37 37 38 37 37 37 37 36 36 35 35 35 35 35 35 36 36 36 36 36 35 35 35 35 35 35 35 35 35 35 35 35 35 35
36 36 35 36 36 36 37 38 38 38 38 38 38 37 37 36 36 35 35 35 35 35 35 35 35 35 35 35 34 34 34 34 34 34 34 34 34 34 34 34 34 34 34
37 36 36 36 36 37 37 37 37 37 37 37 37 37 36 36 35 35 35 35 35 35 34 34 34 34 34 33 33 33 33 33 33 33 33 33 33 34 34 35 35 35 34
Wind_Direction
266 264 263 264 265 266 266 266 266 267 267 266 266 266 265 265 265 266 266 266 267 268 269 270 270 271 272 273 274 275 275 276 277 276 276 276 276 276 276 276 275 274 274
266 264 263 264 264 264 266 266 266 267 267 268 267 266 266 266 266 266 266 267 268 268 269 270 271 272 273 274 274 275 276 277 277 277 277 276 275 275 275 274 275 274 274
267 266 266 265 264 265 265 266 267 268 268 269 268 267 266 267 266 267 267 267 267 268 269 271 272 273 273 274 275 276 276 277 277 277 276 276 275 274 274 274 275 275 274
270 268 268 267 266 266 267 268 268 269 269 270 270 268 268 267 267 267 268 268 268 269 270 271 272 273 273 275 275 276 276 276 277 277 276 275 275 274 274 274 274 274 274
270 269 269 269 269 269 269 270 270 271 271 271 270 269 269 269 268 268 268 268 269 270 271 271 272 273 274 275 275 276 276 276 276 276 275 275 274 274 273 273 274 274 274
272 271 270 270 270 271 271 271 272 272 272 271 271 270 270 270 270 269 269 270 270 271 271 272 273 274 273 274 275 275 276 276 276 275 275 275 275 274 274 274 274 274 273
273 272 271 271 271 272 272 272 272 272 271 271 270 270 271 271 271 270 270 270 270 271 271 271 272 273 273 273 274 274 274 275 275 275 275 275 275 275 274 274 275 275 274
274 273 272 272 271 272 272 272 271 271 271 271 270 271 271 271 271 271 271 271 271 271 271 271 272 273 274 274 274 274 274 274 274 274 275 275 275 275 274 275 275 276 275
275 274 273 272 271 271 272 272 272 271 271 271 271 271 272 272 272 272 272 273 273 273 273 273 273 274 275 275 275 275 275 275 274 274 275 275 275 275 275 275 275 275 275
277 275 274 273 272 271 272 273 272 271 271 271 270 271 272 273 273 274 274 275 274 274 274 275 275 275 275 275 274 274 274 274 274 274 275 275 275 275 275 275 275 275 275
278 276 275 275 274 273 274 273 273 272 272 272 271 271 272 273 274 275 275 275 275 275 274 275 275 275 275 274 273 273 273 273 273 274 274 275 275 275 275 275 275 275 276
279 277 276 276 276 275 275 274 273 273 274 273 272 272 272 272 273 274 275 275 275 275 275 275 275 275 274 274 273 273 272 272 273 274 274 274 275 275 275 275 275 275 276
280 279 277 276 277 276 275 274 274 274 275 275 274 273 273 273 274 275 276 276 276 276 276 276 275 275 274 273 272 272 272 272 273 273 274 274 275 275 274 274 274 275 276
282 280 278 277 277 277 276 276 276 276 276 277 277 275 274 274 275 275 276 277 277 277 277 276 276 275 274 273 273 273 273 274 274 274 274 275 275 274 274 274 274 275 276
283 281 280 278 277 276 276 277 278 278 277 277 277 276 274 274 275 276 277 276 276 276 277 276 276 275 275 275 275 274 273 273 273 274 274 274 274 274 274 274 275 275 275
284 283 282 279 277 276 276 277 278 279 279 278 278 277 276 275 276 276 277 277 276 276 276 276 275 275 274 274 274 273 272 272 272 273 273 274 274 274 275 275 275 276 276
286 284 282 280 279 277 277 278 279 279 279 279 279 279 278 277 277 277 276 276 275 275 275 275 274 273 273 274 274 274 273 273 273 273 274 274 274 274 275 275 275 275 275
286 284 282 281 280 280 280 280 280 279 279 280 280 280 280 279 278 278 277 275 275 274 274 274 274 273 273 274 275 275 274 274 273 273 274 274 274 275 275 275 275 275 276
286 284 283 283 282 282 282 282 281 281 281 281 281 282 281 280 278 278 277 276 275 275 274 274 273 273 273 274 275 275 274 274 274 274 274 275 275 275 275 275 275 276 276
285 284 283 283 283 283 283 282 282 282 283 283 283 283 283 282 279 278 277 276 276 275 274 274 274 274 274 274 274 274 275 275 275 275 275 276 276 276 276 275 275 275 276
284 284 284 283 283 283 283 283 282 283 284 284 284 284 284 284 282 280 278 277 277 276 275 275 275 274 275 275 275 275 275 276 277 277 277 277 277 276 275 275 275 275 275
284 283 283 283 283 284 284 284 284 283 284 283 283 285 285 285 284 283 281 279 278 277 276 276 275 275 275 276 275 276 276 277 277 278 278 278 276 275 275 275 274 275 276
285 284 283 283 283 283 284 285 285 284 284 283 284 285 286 286 286 284 283 280 279 277 276 275 275 275 276 276 276 276 277 277 277 277 277 277 275 275 275 276 275 275 276
286 285 284 284 284 283 284 285 285 285 284 283 284 285 285 286 285 284 283 281 279 278 277 276 275 276 277 278 277 278 278 277 276 276 276 275 275 275 276 276 276 276 276
288 287 286 286 285 285 285 285 285 286 286 285 284 285 285 285 284 283 282 281 279 278 278 277 277 278 278 277 276 277 277 277 276 276 276 276 276 275 275 276 276 276 276
288 287 287 287 287 287 286 285 285 286 286 286 285 285 285 284 284 284 283 281 280 279 279 279 279 279 278 277 276 276 276 276 276 276 276 276 276 275 275 276 276 276 276
Height
5597 5597 5597 5598 5598 5599 5599 5600 5601 5601 5602 5602 5602 5602 5603 5603 5604 5604 5605 5606 5606 5606 5605 5605 5605 5604 5604 5603 5602 5601 5600 5598 5598 5599 5597 5595 5594 5592 5591 5590 5589 5588 5587
5586 5586 5586 5586 5586 5587 5587 5587 5588 5589 5589 5589 5589 5589 5590 5590 5591 5591 5592 5592 5592 5593 5592 5592 5591 5591 5590 5589 5588 5587 5585 5584 5583 5582 5582 5580 5579 5577 5576 5575 5574 5574 5573
5574 5574 5574 5574 5574 5574 5574 5575 5575 5575 5575 5576 5575 5576 5576 5577 5577 5578 5578 5579 5579 5579 5578 5578 5578 5577 5577 5575 5574 5572 5571 5569 5568 5567 5566 5565 5564 5562 5561 5560 5560 5559 5558
5562 5562 5562 5562 5562 5562 5562 5562 5562 5562 5562 5562 5562 5562 5563 5563 5563 5564 5564 5564 5564 5564 5564 5564 5563 5562 5562 5561 5559 5558 5556 5555 5553 5551 5550 5549 5548 5547 5546 5546 5545 5544 5543
5550 5550 5550 5549 5549 5549 5549 5549 5548 5548 5548 5547 5547 5548 5548 5549 5549 5549 5550 5550 5550 5550 5549 5549 5548 5547 5547 5545 5544 5543 5541 5540 5538 5536 5535 5534 5533 5532 5532 5531 5530 5529 5529
5537 5537 5536 5536 5535 5535 5535 5535 5534 5534 5533 5533 5533 5533 5533 5534 5534 5534 5535 5535 5535 5535 5535 5534 5533 5533 5532 5530 5529 5528 5526 5524 5523 5521 5520 5519 5518 5517 5516 5515 5515 5514 5515
5524 5523 5522 5522 5521 5521 5521 5520 5520 5520 5519 5519 5519 5519 5519 5519 5519 5519 5520 5520 5520 5519 5519 5519 5518 5517 5516 5515 5514 5513 5511 5509 5508 5506 5506 5505 5504 5503 5502 5501 5499 5498 5498
5510 5509 5508 5508 5507 5507 5506 5506 5506 5505 5505 5504 5504 5505 5505 5505 5505 5505 5504 5504 5504 5504 5504 5503 5503 5502 5500 5499 5498 5497 5496 5495 5493 5492 5491 5490 5489 5487 5486 5485 5483 5483 5483
5497 5496 5495 5494 5493 5493 5492 5492 5492 5491 5491 5490 5490 5490 5490 5491 5490 5490 5489 5489 5489 5489 5489 5488 5487 5486 5485 5483 5483 5482 5481 5480 5478 5477 5476 5475 5474 5472 5470 5469 5468 5467 5467
5483 5482 5481 5480 5479 5479 5478 5478 5477 5477 5477 5476 5476 5476 5476 5476 5476 5475 5474 5474 5474 5474 5474 5473 5472 5470 5469 5467 5467 5466 5466 5465 5464 5463 5462 5461 5459 5458 5456 5454 5453 5452 5451
5471 5469 5468 5467 5466 5465 5464 5464 5463 5463 5463 5463 5463 5463 5462 5462 5461 5461 5460 5459 5458 5458 5458 5457 5456 5454 5453 5452 5451 5451 5450 5449 5448 5448 5447 5446 5445 5444 5442 5441 5439 5438 5437
5458 5456 5455 5454 5453 5451 5451 5450 5449 5449 5448 5448 5448 5448 5448 5447 5446 5445 5444 5443 5443 5442 5442 5442 5440 5439 5437 5436 5435 5435 5434 5433 5433 5433 5432 5432 5431 5430 5429 5427 5426 5424 5423
5446 5444 5442 5441 5440 5438 5437 5436 5436 5435 5434 5434 5433 5433 5433 5432 5431 5430 5429 5428 5427 5426 5426 5425 5424 5423 5421 5421 5420 5419 5419 5418 5418 5418 5418 5417 5416 5415 5414 5413 5412 5411 5410
5433 5432 5430 5428 5427 5426 5424 5423 5422 5421 5420 5419 5418 5418 5418 5417 5416 5415 5414 5413 5412 5410 5410 5409 5408 5407 5406 5405 5405 5404 5403 5403 5402 5403 5402 5402 5402 5401 5400 5399 5398 5397 5396
5421 5419 5417 5416 5414 5413 5412 5410 5409 5407 5406 5405 5404 5403 5402 5402 5402 5400 5399 5398 5397 5396 5394 5394 5393 5392 5391 5391 5390 5389 5389 5388 5388 5387 5387 5387 5387 5386 5386 5385 5384 5383 5382
5409 5407 5405 5403 5401 5400 5399 5398 5395 5394 5392 5390 5389 5388 5387 5387 5386 5385 5384 5383 5381 5380 5379 5379 5378 5378 5377 5377 5376 5375 5375 5374 5374 5373 5373 5372 5372 5371 5371 5370 5369 5368 5368
5397 5395 5393 5391 5389 5387 5386 5385 5383 5382 5379 5378 5376 5374 5373 5373 5372 5370 5369 5368 5367 5365 5365 5365 5364 5364 5363 5363 5362 5361 5361 5360 5360 5359 5359 5358 5357 5357 5356 5356 5355 5354 5353
5386 5383 5381 5379 5377 5375 5374 5372 5370 5369 5368 5366 5364 5362 5360 5359 5358 5356 5355 5354 5353 5352 5351 5351 5351 5351 5350 5349 5349 5348 5347 5347 5346 5346 5345 5344 5343 5342 5342 5341 5341 5340 5339
5374 5372 5370 5368 5366 5364 5362 5360 5359 5357 5356 5354 5352 5350 5348 5346 5345 5343 5341 5341 5340 5339 5339 5338 5338 5338 5337 5336 5335 5335 5334 5334 5333 5332 5332 5331 5330 5329 5328 5327 5327 5326 5325
5363 5361 5359 5357 5355 5353 5351 5349 5347 5346 5344 5342 5340 5338 5336 5334 5333 5331 5330 5329 5328 5327 5326 5326 5325 5325 5324 5323 5323 5322 5321 5321 5320 5319 5319 5318 5316 5315 5315 5314 5313 5313 5312
5352 5350 5348 5346 5344 5342 5340 5338 5336 5334 5333 5331 5329 5327 5325 5323 5322 5320 5318 5317 5316 5315 5314 5314 5313 5312 5312 5311 5310 5310 5309 5308 5308 5307 5306 5305 5304 5303 5302 5301 5301 5300 5299
5341 5339 5337 5335 5333 5331 5329 5327 5325 5323 5321 5320 5318 5316 5314 5312 5310 5308 5307 5305 5304 5303 5302 5302 5301 5300 5299 5299 5298 5297 5297 5296 5295 5294 5294 5293 5292 5291 5290 5289 5288 5288 5287
5329 5327 5325 5323 5321 5319 5317 5315 5313 5312 5310 5308 5306 5305 5303 5301 5299 5297 5295 5294 5293 5292 5291 5290 5289 5289 5288 5287 5286 5285 5285 5284 5283 5282 5281 5281 5280 5279 5278 5278 5277 5276 5275
5318 5316 5314 5312 5310 5308 5306 5304 5302 5300 5298 5297 5295 5293 5291 5289 5287 5285 5284 5283 5281 5280 5279 5278 5278 5277 5276 5275 5274 5273 5272 5272 5271 5270 5269 5269 5269 5268 5267 5266 5265 5264 5264
5307 5305 5303 5301 5299 5297 5295 5293 5290 5288 5286 5285 5283 5281 5279 5277 5276 5274 5272 5271 5270 5269 5268 5267 5266 5265 5264 5264 5263 5262 5261 5260 5260 5259 5258 5258 5257 5256 5256 5255 5254 5253 5252
5296 5294 5291 5289 5287 5285 5283 5281 5279 5277 5275 5273 5271 5269 5267 5266 5264 5263 5261 5260 5259 5258 5257 5256 5255 5254 5253 5252 5252 5251 5250 5250 5249 5248 5247 5247 5246 5245 5245 5244 5243 5242 5242